Content
SEND FEEDBACK

Daily
Averages
Monthly
Summary
United States of America

BELT, MONTANA


Home > North America > United States > Montana
Elevation: 4222 feet     Latitude: 47 18N     Longitude: 110 45W

WEATHER
 
SELECT A DAY
Number of Records: 131,431;   Date Range: 1/1/95 - 9/3/14
 
SHARE

PRINT THIS DATA

[ ← Previous Day ]
WEATHER ALMANAC - JANUARY 31, 2013
[ Next Day → ]
[ °C ]   °F
Weather ElementAverageHighLow
Temperature23.1 °F41 °F (11:56 pm)5 °F (5:56 am)
Dewpoint15.6 °F28 °F (6:56 pm)1.4 °F (5:41 am)
Humidity74.1 %87 % (5:56 am)57 % (11:56 pm)
Barometer30.26 in30.41 in (5:56 am)30.10 in (5:41 am)
Wind Speed7.6 mph17.3 mph (8:56 pm)
Weather ElementAverage
Visibility10 mi
Wind DirectionSSE (157.5 °)

Weather ElementTotal
Precipitation---
Heating Degree Days42 (Base 65)
Averaged from 24 records on January 31, 2013
WEATHER CONDITIONS BREAKOUT
WIND DIRECTION BREAKOUT
WEATHER BY HOUR - JANUARY 31, 2013
[ °C ]   °F
Local TimeTemperatureDewpointHumidityBarometerVisibilityWind DirectionWind SpeedGust SpeedPrecipitationEventsConditions
1:56 AM10.9 °F7.0 °F84 %30.38 in10.0 miCalmOvercast
2:56 AM9.0 °F5.0 °F84 %30.39 in10.0 miNE (40°)4.6 mphOvercast
3:56 AM8.1 °F3.9 °F83 %30.39 in10.0 miCalmOvercast
4:56 AM8.1 °F3.9 °F83 %30.39 in10.0 miNE (40°)3.5 mphOvercast
5:41 AM6.8 °F1.4 °F79 %30.10 in10.0 miNE (40°)8.1 mphOvercast
5:56 AM5.0 °F1.9 °F87 %30.41 in10.0 miNorth (10°)6.9 mphOvercast
6:56 AM6.1 °F1.9 °F83 %30.40 in10.0 miESE (110°)3.5 mphOvercast
7:56 AM8.1 °F3.9 °F83 %30.39 in10.0 miNorth (360°)6.9 mphOvercast
8:56 AM10.0 °F5.0 °F80 %30.38 in10.0 miCalmOvercast
9:56 AM15.1 °F9.0 °F77 %30.36 in10.0 miSW (220°)4.6 mphMostly Cloudy
10:56 AM18.0 °F12.0 °F78 %30.33 in10.0 miSSW (210°)9.2 mphClear
11:56 AM21.9 °F14.0 °F72 %30.30 in10.0 miSSW (210°)9.2 mphClear
12:56 PM25.0 °F17.1 °F72 %30.27 in10.0 miSouth (180°)4.6 mphClear
1:56 PM28.0 °F19.9 °F72 %30.23 in10.0 miSSW (200°)4.6 mphClear
2:56 PM30.9 °F23.0 °F72 %30.21 in10.0 miSSW (200°)5.8 mphOvercast
3:56 PM34.0 °F26.1 °F73 %30.20 in10.0 miSSW (210°)9.2 mphMostly Cloudy
4:56 PM34.0 °F27.0 °F75 %30.19 in10.0 miSSW (210°)10.4 mphMostly Cloudy
5:56 PM39.0 °F26.1 °F60 %30.19 in10.0 miSW (220°)9.2 mphOvercast
6:56 PM37.9 °F28.0 °F68 %30.18 in10.0 miSSW (210°)11.5 mphOvercast
7:56 PM37.9 °F28.0 °F68 %30.17 in10.0 miSW (220°)9.2 mphOvercast
8:56 PM39.9 °F27.0 °F60 %30.14 in10.0 miSSW (210°)17.3 mphOvercast
9:56 PM39.0 °F28.0 °F65 %30.12 in10.0 miSSW (210°)17.3 mphOvercast
10:56 PM39.9 °F28.0 °F63 %30.11 in10.0 miSW (220°)13.8 mphOvercast
11:56 PM41.0 °F27.0 °F57 %30.11 in10.0 miWSW (250°)12.7 mph0.00 inRainLight Rain
Hourly data recorded from KGFA, located miles away from Belt, Montana







STORIES FROM OUR PARTNERS